Vertical_Velocity
3 -2 -4 -1 1 0 -3 -5 -0 -1 -1 -2 -1 -6 -1 2 -5 -3 0 0 0 -2 1 -2 -1 -1 2 -2 -1 -3 4 -4 -10 -1 2 2 0 -2 1 -2 -3 -2 -1 -5 3
0 1 1 -1 -3 -0 2 -1 -2 -1 -1 -1 -1 -0 -5 4 -5 -4 1 1 4 -1 -2 1 -2 1 2 -3 3 1 -3 1 -2 -4 0 1 -2 6 1 -3 -3 -5 1 -8 9
4 1 3 2 1 -0 -1 2 1 -1 0 -0 -2 -4 -3 -1 -4 11 -0 -2 1 -0 -2 -0 -0 -1 2 1 0 4 1 4 2 -5 -3 11 -8 5 2 1 -3 5 1 3 1
2 2 1 0 -2 -2 -1 0 -1 -2 -0 -3 -3 2 -6 -1 -1 0 3 -4 -2 0 0 -2 -1 -0 3 1 -5 2 -1 -0 -1 2 -5 -3 8 -5 10 -3 4 -5 -11 1 4
1 1 -0 -1 -1 -1 0 -0 -1 -2 -1 -3 -4 -1 -6 4 -7 16 -1 2 -1 -1 -1 -0 -3 3 -3 1 1 0 -1 -4 1 9 1 -1 -3 3 2 4 -1 -6 -3 2 -3
-4 -6 -2 -0 -0 -1 -1 -2 -2 0 -3 -3 -5 -3 -3 18 -7 6 -2 1 -0 1 0 0 -3 -1 5 4 -3 -6 4 -3 3 -3 2 -2 -3 2 7 2 -1 -14 -2 -2 -0
5 -4 -2 0 -1 1 -1 -1 -2 0 -3 -4 -8 -5 -3 15 -2 3 3 -3 -2 2 3 -7 -1 5 -2 -2 4 -1 -1 0 -4 4 9 0 4 7 -3 -3 7 -10 -3 1 9
-0 -5 1 -3 -1 -5 -0 -4 -1 -5 -1 -1 -5 -12 12 -13 -1 -4 6 -1 -1 1 4 -6 2 2 -3 -7 6 -2 -6 -6 27 2 -5 6 10 -3 -8 8 1 -6 -3 1 11
5 3 -8 -1 -1 1 -1 -0 1 -0 -2 -4 -5 -4 18 7 -9 4 -4 4 -3 2 5 -2 2 -6 -4 3 -1 1 2 -6 7 -0 -5 3 -2 6 2 5 7 -15 -2 2 10
8 8 14 -2 -1 2 -1 1 -4 7 -11 1 -2 -13 -3 12 2 -2 -3 2 -0 5 -1 4 -5 -10 7 -7 1 11 -1 -1 -4 -5 3 1 5 -2 0 -2 2 -22 -1 1 16
0 6 32 18 24 3 9 -1 1 -4 -8 10 -9 -12 -9 -3 9 10 -2 -1 -4 3 4 -2 -15 4 6 -6 4 3 -3 -7 3 -9 -5 -0 4 4 -13 -4 -9 -17 -11 3 -5
-4 2 10 -5 11 3 -3 8 -2 -1 -13 4 4 -10 11 -8 -0 9 -5 8 -9 9 -7 -6 -2 12 -4 -3 -2 6 3 1 3 -12 0 0 -6 -1 4 11 -3 -11 -4 2 -1
-3 4 5 4 9 4 -4 3 -4 -8 -24 26 -3 -4 23 -34 3 16 -7 5 1 -4 5 -16 21 -2 -6 -4 -3 6 -0 4 4 5 -5 -6 -5 -5 -4 -13 -5 -4 -4 0 -2
-5 2 2 -1 9 -2 23 12 -2 -13 -24 20 -12 0 13 7 -39 22 -5 3 -12 9 5 -25 19 -3 -1 -0 -0 -3 2 8 6 -1 -8 -1 -18 6 4 13 -6 -1 3 -2 -6
0 -3 -1 -5 -8 11 12 10 13 6 -1 30 -27 11 10 -6 1 -7 9 -6 6 7 -12 18 9 -3 -8 4 4 11 -2 2 0 -3 -6 16 -32 17 5 -2 2 -4 -6 6 4
-4 2 -3 -1 3 -11 -7 6 -13 0 -29 10 -16 16 4 10 6 -9 5 -0 15 -6 -9 9 -1 -8 6 -3 1 14 -8 1 -0 -2 -26 19 -11 32 14 -0 -0 0 -3 3 2
-7 3 -11 1 15 -12 0 8 20 -39 15 -13 5 -0 12 -4 12 -7 4 -1 8 -3 3 37 3 1 -10 -4 6 8 -3 -7 -8 -6 -14 22 -21 13 4 -2 -20 4 13 3 -2
0 -3 -2 -6 3 -0 -1 -9 -9 -40 3 21 14 -7 -11 7 1 9 -4 -5 7 13 2 -2 -10 25 10 -3 13 -4 7 -5 0 -5 -1 13 -32 -14 -10 0 -1 -4 9 5 2
-0 -2 -8 -1 6 9 2 -13 -19 8 -4 1 20 -11 -42 10 4 14 -25 -10 7 20 -6 5 -31 12 -2 4 7 23 -39 46 12 -2 -20 7 -2 -14 -3 -11 -13 -2 8 8 -2
-1 2 3 5 -1 12 7 -1 -27 -8 11 -7 3 20 -18 -11 -6 1 11 1 -6 -4 13 -3 -28 -4 14 6 -19 -5 13 -2 4 -20 -3 -6 10 -4 2 -2 0 -8 -6 -5 -7
-6 -4 16 7 3 9 -4 -13 -15 -1 11 16 -4 1 -6 -16 6 -3 -18 0 1 18 -9 8 -3 4 6 -30 20 8 -11 -5 19 -26 6 -6 -13 11 13 2 -1 0 -2 -1 -5
-1 0 1 11 7 5 -9 -5 11 -0 5 10 -3 -4 1 -0 2 -2 -5 -0 -2 -2 -11 8 15 -33 -2 3 -3 2 -9 8 -15 0 -17 -1 -27 3 16 13 3 -10 -4 2 -4
-3 2 1 4 -19 7 7 -6 3 0 -8 10 -7 -1 7 -8 -9 16 1 11 -3 7 -6 13 -32 -11 7 2 -15 -14 12 14 -1 -5 -43 27 -18 14 6 10 -11 -5 2 5 -2
-4 -5 3 -7 7 7 6 -3 -2 3 -0 12 -4 1 1 -7 11 -1 5 3 9 18 -11 -1 -6 -7 0 40 25 7 -6 21 9 -11 18 -32 17 8 17 -4 -7 -4 -7 5 1
-4 -0 -1 -6 6 2 20 8 -3 -13 -7 25 -8 -8 3 0 12 -5 1 7 6 26 10 35 21 6 6 16 -2 -3 7 4 -2 2 -6 28 -18 26 3 12 -7 -3 13 2 5
-8 6 1 1 -0 -2 15 -8 -3 1 0 6 -11 7 8 -15 6 5 11 15 3 12 23 29 30 25 26 7 10 7 -7 -6 18 7 14 9 -17 20 1 3 34 2 -2 -17 12
8 3 -4 9 5 -9 10 7 2 16 2 -1 6 2 4 10 9 1 1 2 -4 4 9 -1 18 10 13 37 8 -2 -10 4 -3 6 14 -3 -5 19 -5 3 35 -9 -3 -9 2
Height
5817 5819 5822 5825 5827 5828 5830 5832 5833 5835 5837 5839 5840 5842 5843 5845 5845 5846 5850 5850 5851 5850 5852 5851 5852 5851 5851 5850 5852 5851 5854 5849 5848 5848 5847 5849 5847 5851 5849 5848 5847 5847 5847 5845 5848
5805 5807 5810 5812 5815 5818 5819 5821 5824 5825 5827 5830 5831 5833 5835 5837 5838 5838 5841 5842 5843 5843 5844 5844 5844 5844 5844 5843 5845 5846 5846 5842 5843 5843 5843 5845 5842 5846 5845 5842 5842 5843 5845 5841 5843
5792 5795 5798 5800 5802 5805 5809 5810 5813 5815 5817 5819 5821 5823 5825 5829 5830 5832 5833 5833 5835 5835 5836 5837 5837 5837 5838 5836 5838 5839 5841 5838 5839 5839 5839 5841 5838 5838 5840 5838 5836 5839 5840 5836 5840
5781 5783 5786 5788 5791 5793 5797 5800 5802 5805 5806 5809 5811 5813 5815 5819 5822 5821 5825 5825 5826 5827 5827 5828 5830 5830 5830 5831 5830 5831 5832 5831 5833 5836 5833 5832 5836 5834 5835 5831 5833 5833 5828 5832 5836
5768 5771 5773 5776 5780 5782 5785 5789 5791 5794 5796 5799 5801 5804 5806 5811 5812 5813 5815 5816 5817 5818 5819 5820 5821 5822 5822 5823 5823 5823 5826 5823 5826 5831 5830 5829 5830 5828 5829 5825 5827 5828 5823 5824 5828
5754 5759 5762 5765 5768 5771 5773 5776 5778 5782 5785 5787 5791 5794 5798 5801 5803 5805 5805 5806 5807 5809 5811 5812 5813 5813 5816 5816 5817 5818 5819 5818 5818 5822 5823 5823 5824 5822 5822 5818 5821 5817 5816 5818 5821
5741 5743 5747 5751 5755 5758 5760 5763 5767 5770 5773 5776 5779 5784 5790 5790 5792 5796 5797 5797 5799 5801 5802 5802 5802 5806 5807 5809 5808 5811 5812 5813 5812 5815 5814 5814 5817 5817 5810 5813 5814 5810 5810 5809 5815
5731 5731 5735 5738 5741 5745 5747 5750 5754 5757 5761 5765 5769 5772 5779 5779 5782 5784 5787 5790 5790 5791 5793 5794 5795 5798 5798 5798 5801 5803 5804 5806 5810 5804 5802 5808 5810 5806 5801 5805 5805 5801 5801 5801 5808
5720 5721 5722 5726 5729 5733 5737 5740 5742 5746 5749 5754 5757 5761 5769 5772 5771 5774 5777 5779 5780 5783 5783 5784 5788 5789 5789 5791 5793 5795 5797 5797 5798 5795 5792 5796 5797 5798 5797 5795 5797 5793 5794 5794 5797
5707 5709 5711 5714 5718 5721 5726 5729 5731 5735 5738 5742 5746 5752 5756 5759 5763 5764 5766 5768 5770 5772 5774 5777 5778 5778 5780 5785 5786 5788 5787 5786 5785 5787 5785 5784 5789 5786 5787 5785 5786 5779 5789 5787 5790
5693 5695 5698 5699 5705 5709 5713 5716 5720 5724 5728 5734 5737 5742 5744 5747 5752 5756 5755 5756 5759 5762 5765 5767 5766 5770 5778 5775 5775 5774 5775 5775 5777 5776 5773 5774 5776 5780 5781 5777 5775 5767 5768 5784 5781
5677 5680 5682 5685 5692 5696 5699 5700 5704 5709 5715 5721 5728 5732 5737 5735 5741 5743 5745 5747 5748 5750 5752 5754 5755 5766 5763 5763 5763 5764 5765 5766 5768 5769 5769 5766 5764 5766 5772 5778 5771 5764 5766 5769 5770
5662 5666 5666 5671 5677 5682 5686 5686 5688 5693 5699 5713 5713 5723 5726 5725 5726 5734 5733 5736 5738 5739 5742 5746 5752 5750 5752 5753 5754 5755 5756 5760 5761 5763 5759 5757 5756 5755 5759 5762 5764 5761 5763 5764 5764
5646 5649 5652 5656 5665 5667 5673 5668 5669 5680 5683 5699 5701 5709 5713 5712 5714 5719 5724 5727 5728 5730 5732 5733 5742 5741 5742 5744 5746 5745 5749 5752 5751 5750 5751 5754 5746 5752 5753 5756 5750 5750 5753 5754 5755
5629 5632 5637 5639 5648 5654 5656 5655 5653 5666 5666 5680 5683 5693 5696 5699 5706 5705 5709 5711 5718 5719 5722 5727 5730 5730 5731 5736 5737 5739 5737 5739 5739 5739 5741 5741 5740 5740 5745 5744 5743 5741 5742 5745 5747
5610 5614 5618 5625 5632 5635 5639 5639 5638 5649 5654 5667 5671 5677 5677 5684 5689 5692 5694 5700 5704 5702 5708 5715 5718 5720 5723 5724 5726 5728 5727 5728 5727 5728 5727 5728 5732 5736 5732 5737 5732 5733 5733 5735 5735
5596 5599 5603 5611 5614 5614 5619 5621 5623 5630 5652 5659 5661 5661 5662 5668 5677 5678 5681 5685 5691 5692 5697 5703 5707 5708 5708 5711 5716 5718 5717 5716 5717 5716 5717 5721 5719 5722 5722 5722 5723 5726 5726 5725 5724
5581 5582 5588 5595 5597 5597 5598 5600 5601 5627 5637 5648 5643 5638 5643 5653 5662 5665 5665 5670 5675 5682 5683 5684 5691 5696 5700 5701 5703 5704 5706 5705 5704 5706 5710 5709 5701 5707 5709 5711 5712 5716 5717 5715 5712
5566 5567 5572 5582 5582 5581 5579 5576 5590 5614 5620 5624 5621 5615 5623 5636 5646 5647 5650 5659 5664 5668 5670 5674 5676 5683 5687 5688 5690 5693 5691 5698 5694 5696 5695 5696 5694 5696 5698 5699 5698 5702 5704 5703 5700
5551 5556 5563 5568 5567 5568 5565 5562 5579 5594 5603 5599 5596 5600 5609 5619 5620 5625 5634 5648 5650 5652 5656 5660 5660 5669 5676 5673 5678 5676 5681 5680 5678 5680 5681 5686 5687 5687 5688 5688 5687 5689 5691 5690 5689
5537 5544 5552 5552 5554 5550 5550 5552 5570 5586 5586 5581 5584 5587 5596 5606 5611 5612 5617 5628 5632 5637 5634 5646 5644 5655 5657 5659 5668 5666 5666 5665 5667 5669 5669 5675 5677 5681 5678 5677 5677 5678 5679 5678 5677
5524 5532 5538 5536 5538 5537 5540 5549 5562 5573 5569 5569 5572 5578 5587 5594 5595 5600 5607 5616 5612 5616 5618 5632 5631 5634 5642 5646 5650 5651 5655 5655 5651 5659 5659 5664 5666 5668 5669 5666 5666 5665 5666 5665 5665
5512 5517 5520 5520 5523 5529 5531 5537 5545 5556 5558 5557 5558 5567 5574 5580 5583 5591 5594 5601 5601 5606 5604 5611 5611 5617 5629 5630 5634 5632 5641 5642 5642 5644 5648 5646 5657 5658 5657 5652 5650 5651 5656 5656 5654
5498 5503 5506 5507 5513 5514 5518 5522 5530 5543 5544 5547 5549 5555 5562 5567 5572 5578 5582 5586 5593 5594 5595 5594 5600 5599 5611 5616 5622 5620 5626 5629 5628 5629 5637 5634 5641 5648 5645 5638 5637 5641 5643 5643 5642
5485 5490 5491 5496 5498 5499 5505 5512 5517 5524 5533 5538 5539 5549 5554 5557 5562 5565 5571 5577 5582 5582 5587 5588 5587 5584 5593 5599 5599 5605 5612 5616 5615 5616 5618 5630 5626 5635 5634 5629 5629 5630 5631 5631 5633
5472 5477 5477 5482 5483 5484 5489 5496 5503 5514 5522 5527 5533 5541 5544 5549 5554 5556 5561 5564 5570 5573 5576 5575 5579 5576 5580 5584 5585 5591 5599 5605 5605 5606 5608 5611 5614 5620 5620 5620 5619 5617 5614 5620 5622
5461 5462 5461 5469 5470 5472 5479 5487 5496 5505 5510 5517 5526 5531 5535 5543 5543 5548 5552 5557 5562 5565 5564 5565 5569 5568 5571 5573 5573 5576 5588 5589 5593 5595 5596 5594 5605 5608 5606 5607 5603 5602 5604 5606 5611